Regional Weather Roundup
Issued by NWS Cleveland, OH

Home | Current Version | Previous Version | Text Only | Print | Product List | Glossary Off
Versions: 1 2 3 4 5 6 7 8 9 10 11 12 13 14 15 16 17 18 19 20 21 22 23 24 25 26 27 28 29 30 31 32 33 34 35 36 37 38 39 40 41 42 43 44 45 46 47 48 49 50

000
ASUS41 KCLE 201202
RWRCLE
OHIO REGIONAL WEATHER ROUNDUP
NATIONAL WEATHER SERVICE CLEVELAND, OH
700 AM EST SAT DEC 20 2014

NOTE: "FAIR" INDICATES FEW OR NO CLOUDS BELOW 12,000 FEET WITH NO
SIGNIFICANT WEATHER AND/OR OBSTRUCTIONS TO VISIBILITY.

OHZ001>008-015>018-024>027-034-035-043-044-201300-
   NORTHWEST OHIO

CITY           SKY/WX    TMP DP  RH WIND       PRES   REMARKS
DEFIANCE       CLOUDY    28  24  85 CALM      30.28S
FINDLAY        CLOUDY    30  23  75 CALM      30.27R
TOLEDO EXPRESS CLOUDY    29  21  72 CALM      30.28S
TOLEDO EXEC    CLOUDY    30  19  63 SW3       30.30S
LIMA           CLOUDY    31  24  75 CALM      30.26R
$$

OHZ009>014-019>023-028>033-038-089-201300-
   NORTHEAST OHIO

CITY           SKY/WX    TMP DP  RH WIND       PRES   REMARKS
CLE-HOPKINS    CLOUDY    28  20  71 SW3       30.31F
CLE-LAKEFRONT  CLOUDY    30  21  69 SW3       30.29S
CUY CO. ARPT   MOCLDY    30  23  74 SW5       30.29  WCI  25
LORAIN-ELYRIA  CLOUDY    28  22  78 CALM      30.29S
ASHTABULA      CLOUDY    28  21  75 W6        30.29S WCI  22
AKRON-CANTON   CLOUDY    28  19  69 NE5       30.26S WCI  23
WOOSTER        CLOUDY    27  21  78 E3        30.27R
MANSFIELD      CLOUDY    28  21  75 CALM      30.25R
YOUNGSTOWN     CLOUDY    27  19  72 N7        30.26S WCI  19
$$

OHZ042-051>053-060>062-070>072-077>081-201300-
  SOUTHWEST OHIO

CITY           SKY/WX    TMP DP  RH WIND       PRES   REMARKS
CINC-COVINGTON CLOUDY    30  22  72 CALM      30.26R
CINC-LUNKEN    CLOUDY    30  24  78 CALM      30.30R
HAMILTON       CLOUDY    31  25  78 CALM      30.30R
DAYTON         CLOUDY    30  23  75 CALM      30.27R
WRIGHT-PAT AFB CLOUDY    29  24  79 CALM      30.27R
DAYTON GENERAL CLOUDY    30  24  78 CALM      30.26R
WILMINGTON     CLOUDY    28  23  81 CALM      30.26R
$$

OHZ036-037-039>041-045>050-054>059-063>069-073>076-082>088-201300-
  CENTRAL AND SOUTHEAST OHIO

CITY           SKY/WX    TMP DP  RH WIND       PRES   REMARKS
COLUMBUS       CLOUDY    29  22  75 CALM      30.27R
OSU AIRPORT    CLOUDY    29  23  78 CALM      30.26S
BOLTON FIELD   NOT AVBL
RICKENBACK AFB NOT AVBL
NEWARK         CLOUDY    30  23  75 CALM      30.26R
MARION         CLOUDY    29  21  72 CALM      30.27R
LANCASTER      CLOUDY    33  25  72 CALM      30.27R
ZANESVILLE     CLOUDY    29  22  75 NE3       30.27R
NEW PHILLY     CLOUDY    30  21  69 CALM      30.28S
$$


USA.gov is the U.S. government's official web portal to all federal, state and local government web resources and services.